KC1OHT-13 Weather Reports


Display with metric or nautical units.
time (UTC)temp
F
wind
direction
speed
MPH
gust
MPH
rain 1hr
in
rain 24hr
in
rain mn
in
humidity
%
barometer
mb
20260507081438 53 7 0.0 0.0 0.00 0.01 0.01 89 1005.0
20260507080935 53 200 3.0 3.0 0.00 0.01 0.01 88 1005.2
20260507080425 53 343 1.0 1.0 0.00 0.01 0.01 88 1004.9
20260507075920 53 181 2.0 2.0 0.00 0.01 0.01 87 1004.7
20260507075416 53 4 1.0 1.0 0.00 0.01 0.01 87 1004.6
20260507074908 54 254 3.0 6.0 0.00 0.01 0.01 86 1004.8
20260507074405 54 343 1.0 1.0 0.00 0.01 0.01 84 1004.7
20260507073903 54 229 1.0 2.0 0.00 0.01 0.01 84 1004.6
20260507073359 54 358 1.0 1.0 0.00 0.01 0.01 84 1004.2
20260507072856 54 293 3.0 4.0 0.00 0.01 0.01 84 1004.2
20260507072353 54 6 0.0 1.0 0.00 0.01 0.01 85 1004.2
20260507071851 54 279 1.0 1.0 0.00 0.01 0.01 86 1004.1
20260507071348 54 283 4.0 6.0 0.00 0.01 0.01 86 1004.2
20260507070843 54 306 2.0 2.0 0.00 0.01 0.01 86 1004.3
20260507070341 54 1 1.0 2.0 0.00 0.01 0.01 86 1004.0
20260507065838 54 333 1.0 1.0 0.00 0.01 0.01 86 1004.5
20260507065335 55 219 2.0 2.0 0.00 0.01 0.01 86 1004.1
20260507064832 55 329 2.0 3.0 0.00 0.01 0.01 85 1004.2
20260507064330 55 294 2.0 3.0 0.00 0.01 0.01 84 1004.1
20260507063828 55 297 2.0 2.0 0.00 0.01 0.01 84 1004.1
20260507063324 55 309 2.0 3.0 0.00 0.01 0.01 84 1004.2
20260507062821 55 309 3.0 4.0 0.00 0.01 0.01 86 1004.2
20260507062318 56 181 1.0 2.0 0.00 0.01 0.01 89 1003.9
20260507061816 56 18 0.0 0.0 0.00 0.01 0.01 89 1003.8
20260507061314 56 49 1.0 1.0 0.00 0.01 0.01 90 1004.0
20260507060812 56 329 2.0 3.0 0.00 0.01 0.01 91 1004.2
20260507060308 56 358 0.0 1.0 0.00 0.01 0.01 91 1004.0
20260507055805 56 307 1.0 2.0 0.00 0.01 0.01 91 1004.1
20260507055300 57 340 1.0 2.0 0.00 0.01 0.01 91 1004.3
20260507054757 57 0 1.0 1.0 0.00 0.01 0.01 91 1004.6
20260507054253 57 208 3.0 4.0 0.00 0.01 0.01 91 1004.5
20260507053751 57 315 1.0 1.0 0.00 0.01 0.01 91 1004.5
20260507053248 57 333 1.0 2.0 0.00 0.01 0.01 91 1004.3
20260507052747 57 350 1.0 1.0 0.00 0.01 0.01 91 1004.1
20260507052243 57 348 1.0 2.0 0.00 0.01 0.01 90 1004.1
20260507051741 57 204 2.0 6.0 0.00 0.01 0.01 91 1004.2
20260507051238 57 18 2.0 2.0 0.00 0.01 0.01 92 1004.1
20260507050734 57 333 1.0 1.0 0.00 0.01 0.01 93 1004.2
20260507050232 58 0 1.0 1.0 0.00 0.01 0.01 94 1004.2
20260507045728 58 344 3.0 6.0 0.00 0.01 0.01 95 1004.1
20260507045224 59 243 4.0 6.0 0.00 0.01 0.01 96 1003.9
20260507044722 59 345 1.0 2.0 0.00 0.01 0.01 97 1003.9
20260507044218 59 1 1.0 2.0 0.00 0.01 0.01 97 1003.6
20260507043714 59 344 4.0 6.0 0.00 0.01 0.01 97 1003.9
20260507043211 59 337 1.0 1.0 0.00 0.01 0.01 97 1003.9
20260507042708 59 2 1.0 1.0 0.00 0.01 0.01 97 1003.8
20260507042203 59 354 1.0 1.0 0.07 0.01 0.01 97 1004.0
20260507041701 59 349 1.0 1.0 0.07 0.01 0.01 97 1004.0
20260507041156 59 355 1.0 1.0 0.00 0.00 0.00 97 1004.2
20260507040654 59 330 1.0 1.0 0.00 0.00 0.00 97 1004.1
20260507040150 59 329 1.0 1.0 0.00 0.00 0.00 96 1004.3
20260507035646 59 334 2.0 3.0 0.00 0.04 0.04 96 1004.1
20260507035142 59 239 2.0 2.0 0.00 0.04 0.04 96 1004.1
20260507034639 59 8 1.0 1.0 0.00 0.04 0.04 96 1003.9
20260507034137 59 7 1.0 1.0 0.00 0.04 0.04 95 1004.1
20260507033635 59 5 0.0 1.0 0.00 0.04 0.04 95 1003.8
20260507033132 59 331 4.0 4.0 0.00 0.04 0.04 95 1003.9
20260507032629 59 270 2.0 3.0 0.00 0.04 0.04 95 1003.7
20260507032124 59 211 2.0 3.0 0.00 0.04 0.04 95 1003.7
20260507031621 59 321 3.0 6.0 0.00 0.04 0.04 95 1003.6
20260507031113 59 9 1.0 1.0 0.00 0.04 0.04 95 1003.6
20260507030609 59 336 3.0 4.0 0.00 0.04 0.04 95 1003.4
20260507030107 59 324 2.0 3.0 0.00 0.04 0.04 95 1003.4
20260507025604 59 25 0.0 0.0 0.00 0.04 0.04 96 1003.3
20260507025100 59 345 1.0 1.0 0.00 0.04 0.04 96 1003.6
20260507024558 58 313 1.0 2.0 0.00 0.04 0.04 96 1003.7
20260507024050 58 112 1.0 2.0 0.00 0.04 0.04 96 1003.7
20260507023545 58 15 0.0 1.0 0.00 0.04 0.04 96 1003.6
20260507023043 58 18 1.0 1.0 0.00 0.04 0.04 96 1003.7
20260507022540 58 16 0.0 1.0 0.00 0.04 0.04 96 1003.7
20260507022035 58 2 2.0 2.0 0.00 0.04 0.04 96 1003.8
20260507021531 58 38 2.0 2.0 0.00 0.04 0.04 96 1004.0
20260507021028 58 302 1.0 3.0 0.00 0.04 0.04 96 1003.7
20260507020526 58 244 1.0 2.0 0.00 0.04 0.04 96 1003.6
20260507020022 58 27 0.0 1.0 0.00 0.04 0.04 95 1003.6
20260507015521 58 32 1.0 1.0 0.00 0.04 0.04 96 1003.8
20260507015018 58 321 1.0 2.0 0.00 0.04 0.04 96 1004.1
20260507014514 58 23 2.0 3.0 0.00 0.04 0.04 96 1003.8
20260507014010 58 61 1.0 2.0 0.00 0.04 0.04 96 1003.8
20260507013507 58 14 1.0 1.0 0.00 0.04 0.04 95 1003.8
20260507013004 58 25 0.0 1.0 0.00 0.04 0.04 96 1004.0
20260507012501 58 57 1.0 1.0 0.00 0.04 0.04 95 1004.1
20260507011957 57 349 1.0 1.0 0.00 0.04 0.04 96 1004.0
20260507011455 57 329 3.0 3.0 0.00 0.04 0.04 95 1004.1
20260507010950 57 73 1.0 1.0 0.00 0.04 0.04 96 1004.1
20260507010445 57 57 1.0 1.0 0.00 0.04 0.04 96 1004.1
20260507005942 57 24 0.0 0.0 0.00 0.04 0.04 96 1004.2
20260507005439 57 252 1.0 2.0 0.00 0.04 0.04 96 1004.0
20260507004936 57 298 1.0 2.0 0.00 0.04 0.04 96 1004.1
20260507004432 57 29 2.0 2.0 0.00 0.04 0.04 96 1004.1
20260507003930 57 40 1.0 2.0 0.00 0.04 0.04 96 1004.3
20260507003425 57 249 1.0 2.0 0.00 0.04 0.04 96 1004.2
20260507002920 57 142 3.0 4.0 0.00 0.04 0.04 96 1004.0
20260507002417 57 197 3.0 3.0 0.00 0.04 0.04 96 1004.2
20260507001914 57 237 3.0 4.0 0.00 0.04 0.04 96 1004.1
20260507001411 57 309 2.0 3.0 0.00 0.04 0.04 96 1003.8
20260507000908 57 114 2.0 3.0 0.07 0.04 0.04 96 1003.9
20260507000405 57 193 4.0 4.0 0.07 0.04 0.04 96 1003.8
20260506235859 57 172 4.0 4.0 0.00 0.03 0.03 96 1004.0
20260506235357 56 200 3.0 3.0 0.00 0.03 0.03 96 1004.1
20260506234852 56 142 2.0 6.0 0.05 0.03 0.03 96 1004.0
20260506234350 56 130 2.0 2.0 0.05 0.03 0.03 96 1004.0
20260506233848 56 53 2.0 2.0 0.00 0.02 0.02 96 1004.0
20260506233343 56 174 3.0 4.0 0.00 0.02 0.02 96 1003.9
20260506232841 56 7 1.0 2.0 0.00 0.02 0.02 96 1003.9
20260506232337 56 145 4.0 4.0 0.00 0.02 0.02 96 1003.9
20260506231833 56 57 2.0 3.0 0.00 0.02 0.02 96 1004.0
20260506231331 57 135 5.0 7.0 0.00 0.02 0.02 95 1004.1
20260506230828 57 204 4.0 8.0 0.00 0.02 0.02 96 1003.9
20260506230325 57 148 2.0 3.0 0.00 0.02 0.02 96 1004.0
20260506225821 57 236 4.0 6.0 0.00 0.02 0.02 96 1004.0
20260506225318 57 196 3.0 4.0 0.00 0.02 0.02 96 1004.0
20260506224815 57 182 5.0 6.0 0.07 0.02 0.02 95 1004.2
20260506224312 57 114 3.0 6.0 0.07 0.02 0.02 95 1004.1
20260506223809 57 175 3.0 6.0 0.00 0.01 0.01 95 1004.3
20260506223303 57 162 2.0 3.0 0.00 0.01 0.01 95 1004.2
20260506222800 57 294 2.0 2.0 0.00 0.01 0.01 95 1004.2
20260506222256 58 169 2.0 3.0 0.00 0.01 0.01 94 1004.4
20260506221749 58 31 2.0 2.0 0.00 0.01 0.01 94 1004.3
20260506221246 58 47 4.0 4.0 0.00 0.01 0.01 94 1004.5
20260506220744 58 116 2.0 3.0 0.00 0.01 0.01 94 1004.4
20260506220238 58 185 5.0 8.0 0.00 0.01 0.01 93 1004.6
20260506215736 59 304 4.0 4.0 0.00 0.01 0.01 93 1004.7
20260506215231 59 126 3.0 4.0 0.00 0.01 0.01 93 1004.7
20260506214728 59 78 2.0 2.0 0.00 0.01 0.01 92 1004.7
20260506214225 59 137 4.0 7.0 0.00 0.01 0.01 92 1004.8
20260506213723 59 140 4.0 7.0 0.00 0.01 0.01 91 1004.8
20260506213219 59 245 2.0 3.0 0.00 0.01 0.01 91 1004.7
20260506212717 59 163 6.0 9.0 0.00 0.01 0.01 91 1004.9
20260506212212 59 29 2.0 3.0 0.00 0.01 0.01 91 1004.8
20260506211702 59 75 2.0 3.0 0.00 0.01 0.01 90 1004.9
20260506211159 59 114 4.0 6.0 0.00 0.01 0.01 90 1004.9
20260506210656 59 151 4.0 4.0 0.00 0.01 0.01 90 1005.1
20260506210153 59 227 3.0 3.0 0.00 0.01 0.01 89 1004.8
20260506205650 59 117 4.0 4.0 0.05 0.01 0.01 89 1005.1
20260506205149 59 64 1.0 2.0 0.05 0.01 0.01 88 1005.2
20260506204648 60 52 2.0 4.0 0.00 0.00 0.00 87 1005.1